This is the latest recevied weather packets stored in our database for station/object KF7U. If no packets are shown the sender has not sent any weather packets the latest 10 day(s).
| Time | Temp. | Humidity | Pressure | Rain* | Wind** | Luminosity | Snow |
|---|---|---|---|---|---|---|---|
| 1778001155 | 20.56° C | 60% | 1010.8 hPa | 0 mm | - | 425 W/m² | - |
| 1778000855 | 20.56° C | 62% | 1010.8 hPa | 0 mm | - | 497 W/m² | - |
| 1778000554 | 20° C | 63% | 1010.8 hPa | 0 mm | - | 333 W/m² | - |
| 1778000254 | 20° C | 63% | 1010.8 hPa | 0 mm | - | 285 W/m² | - |
| 1777999955 | 20.56° C | 62% | 1010.8 hPa | 0 mm | - | 361 W/m² | - |
| 1777999655 | 20° C | 66% | 1010.8 hPa | 0 mm | - | 433 W/m² | - |
| 1777999356 | 19.44° C | 68% | 1010.8 hPa | 0 mm | - | 978 W/m² | - |
| 1777999055 | 18.89° C | 67% | 1010.8 hPa | 0 mm | - | 889 W/m² | - |
| 1777998755 | 18.89° C | 64% | 1010.8 hPa | 0 mm | - | 180 W/m² | - |
| 1777998156 | 20° C | 66% | 1010.5 hPa | 0 mm | - | 131 W/m² | - |
| 1777997855 | 20° C | 66% | 1010.8 hPa | 0 mm | - | 131 W/m² | - |
| 1777997555 | 20° C | 66% | 1010.8 hPa | 0 mm | - | 241 W/m² | - |
| 1777997254 | 19.44° C | 68% | 1010.8 hPa | 0 mm | - | 364 W/m² | - |
| 1777996956 | 19.44° C | 67% | 1010.8 hPa | 0 mm | - | 318 W/m² | - |
| 1777996655 | 19.44° C | 68% | 1010.5 hPa | 0 mm | - | 370 W/m² | - |
| 1777996355 | 19.44° C | 68% | 1010.5 hPa | 0 mm | - | 671 W/m² | - |
| 1777996057 | 19.44° C | 70% | 1010.5 hPa | 0 mm | - | 375 W/m² | - |
| 1777995757 | 18.89° C | 72% | 1010.5 hPa | 0 mm | - | 703 W/m² | - |
| 1777995454 | 18.89° C | 72% | 1010.5 hPa | 0 mm | - | 234 W/m² | - |
| 1777995155 | 18.33° C | 72% | 1010.5 hPa | 0 mm | - | 239 W/m² | - |
| 1777994855 | 18.33° C | 74% | 1010.5 hPa | 0 mm | - | 242 W/m² | - |
| 1777994555 | 18.33° C | 73% | 1010.5 hPa | 0 mm | - | 256 W/m² | - |
| 1777994255 | 18.33° C | 74% | 1010.5 hPa | 0 mm | - | 239 W/m² | - |
| 1777993955 | 17.78° C | 74% | 1010.5 hPa | 0 mm | - | 202 W/m² | - |
| 1777993654 | 17.78° C | 75% | 1010.5 hPa | 0 mm | - | 166 W/m² | - |
* Rain latest hour (hover to see other rain measurements)
** Current wind speed in m/s (hover to see current wind gust speed)